Current weather by "City, St" or "zip code"  
 

Current Conditions: KENEDY

Partly Cloudy


80.4 F

Last Updated on Jun 17 2024, 11:55 PM CDT
Humidity: 79%
Wind Speed: 8.1 mph
Barometer 29.84 in
Dewpoint: 73.4 F
Visibility: 10.00 mi
Precip: --
Heat Index: 85.1 F
Wind Chill: NA
Current conditions at:

KENEDY (K2R9)

Lat: 28.82 Lon: 97.87

active severe weather and emergency alerts image image weather storm and storm spotter reports image weather observation monitoring service image
Active
Alerts
Storm Reports Obs
Monitoring

Sign-up For Email & Text Message Weather Alert Notification Services



Advertise Here

Observation History for KENEDY


Time Wind
(mph)
Vis
(mi)
Weather Precip (in) Temperature (F) Relative
Humidity
Wind
Chill
(F)
Heat
Index
(F)
Pressure
Air Dwpt altimeter
(in)
sea level
(mb)
Rmks
11:55 PM CDT 8.1 10.00 Partly Cloudy -- 80.4 73.4 79% NA 85.1 29.84 1010.5
10:55 PM CDT 15.0 10.00 Clear -- 81.0 73.6 78% NA 86.0 29.83 1010.2
10:15 PM CDT 10.00 Mostly Cloudy -- 81.9 73.2 75% NA 87.3 29.81 1009.5
09:55 PM CDT 18.4 10.00 Mostly Cloudy -- 82.6 73.4 74% NA 88.5 29.80 1009.1
09:15 PM CDT 18.4 10.00 Mostly Cloudy -- 84.0 72.7 69% NA 90.1 29.79 1008.8
08:55 PM CDT 18.4 10.00 Partly Cloudy -- 85.1 72.5 66% NA 91.4 29.79 1008.8
07:15 PM CDT 10.00 Mostly Cloudy -- 88.5 73.4 61% NA 96.8 29.76 1007.8
06:55 PM CDT 18.4 10.00 Partly Cloudy -- 91.2 72.9 55% NA 99.7 29.75 1007.5
05:55 PM CDT 16.1 10.00 Partly Cloudy -- 92.7 71.4 50% NA 100.0 29.74 1007.1
05:15 PM CDT 18.4 10.00 Partly Cloudy -- 95.5 71.2 46% NA 103.5 29.74 1007.1
04:15 PM CDT 10.00 Mostly Cloudy -- 98.1 72.9 45% NA 108.5 29.75 1007.5
03:55 PM CDT 10.00 Mostly Cloudy -- 97.2 72.0 44% NA 106.3 29.75 1007.5
03:15 PM CDT 10.00 Mostly Cloudy -- 98.6 71.6 42% NA 107.8 29.75 1007.5
02:55 PM CDT 10.00 Mostly Cloudy -- 96.4 70.9 44% NA 104.2 29.76 1007.8
02:15 PM CDT E 11.5 10.00 Partly Cloudy -- 96.8 72.3 46% NA 106.2 29.77 1008.1
01:15 PM CDT SE 12.7 10.00 Partly Cloudy -- 97.0 71.4 44% NA 105.4 29.79 1008.8
11:35 AM CDT 11.5 10.00 Partly Cloudy -- 91.4 73.0 55% NA 100.2 29.81 1009.5
11:15 AM CDT SE 12.7 10.00 Mostly Cloudy -- 90.1 72.7 57% NA 98.2 29.81 1009.5
10:35 AM CDT 10.00 Mostly Cloudy -- NULL % NA NA M
07:55 AM CDT E 4.6 10.00 Partly Cloudy -- 80.2 75.2 85% NA 85.5 29.81 1009.5
07:15 AM CDT 0.0 10.00 Partly Cloudy -- 78.1 74.5 89% NA 79.7 29.81 1009.5
06:35 AM CDT 0.0 10.00 Clear -- 77.4 74.5 91% NA 79.0 29.80 1009.1
06:15 AM CDT E 4.6 10.00 Clear -- 77.5 74.7 91% NA 79.3 29.80 1009.1
05:15 AM CDT E 4.6 10.00 Clear -- 78.3 75.0 90% NA 81.1 29.80 1009.1

Regional Weather Observation


PLEASANTON MUNI (KPEZ)

NULL
76.8 F

S ANTONIO/STINSN (KSSF)

Cloudy
82.0 F

RANDOLPH AFB (KRND)

Mostly Cloudy
82.4 F

KELLY AFB (KSKF)

Cloudy
84.2 F

SEGUIN (KSEQ)

Mostly Clear
79.0 F

SAN ANTONIO (KSAT)

Mostly Cloudy
81.0 F

Advertise Here


Advertise Here